NOAA 16 DEB, 41078

Orbit data source: Space-Track

NOAA 16 DEB, 41078 is space debris in SSO originally from a launch on Thu, 21 Sep 2000 UTC launched from the Air Force Western Test Range (AFWTR). Debris objects in space refer to the collection of defunct objects orbiting the Earth. Examples of debris include non-operational satellites, rocket bodies, and fragments generated from explosions, collisions, or faulty payload assembly.

Loading next visibility...
Identifier
41078, 2000-055AM
Orbit
SSO
Country
Flag of USUS
Related business
Manufacturer
Unknown
Mission
Spacecraft
Bus & Motor
Unknown
Mass
Unknown
Launch date (UTC)
2000-09-21 (25 years ago)
Launch vehicle
Unknown
Launch site
Air Force Western Test Range (AFWTR)
Object type
Payload
Rocket body
Debris
Shape & HBR
Unknown shape, 0.1 m
Radar Cross Section
Small (<0.1 m²)

Expand to show TLE details & history
Last TLE update: 7 hours ago

TLE from 7 hours ago
0 NOAA 16 DEB
1 41078U 00055AM  26038.15331374  .00000373  00000-0  43284-3 0  9993
2 41078  98.9151 165.9352 0287780 353.3666   6.3701 13.58356913505113
Epoch: 2026-02-07T03:40Z
TLE epoch observation values (Epoch: 2026-02-07T03:40:46.307Z)
Latitude
-0.00008°
Longitude
-26.53866°
Altitude
832.326 km
Speed
7.542 km/s
True Right ascension
11h 03m 44s
True Declination
0° 00' 00"
Sunlit
Object was in full shadow at epoch
Visualization orbit readout
Latitude
Unknown
Longitude
Unknown
Altitude
Unknown
Speed
Unknown
Apparent Right ascension
Unknown
Apparent Declination
Unknown
Sunlit
N/A
Visualization observer readout
Local Sidereal Time
12:38:03
Azimuth
Unknown
Elevation
Unknown
Doppler factor
Unknown
Orbital elements
Apogee altitude
1,252.365 km
Perigee altitude
825.469 km
Semi-major axis
7,417.054 km
Eccentricity
0.02878
Inclination
98.9151°
RAAN
165.9352°
Arg. of periapsis
353.3666°
True anomaly
6.74952°
Mean anomaly
6.3701°
Eccentric anomaly
6.55843°
Mean motion
3.39779 °/min
Orbital period
105.95 mins
BSTAR
0.00043284
Loading maneuver chart data...
Computing Atmospheric mass density...
Loading historical data...
Loading historical data...
Loading historical data...
Loading historical data...
Loading historical data...
Loading historical data...
Loading historical data...

Documentation

Showing up to 5 results
|